TITAN 3C TRANSTAGE R/B, 3956

Orbit data source: Space-Track

TITAN 3C TRANSTAGE R/B, 3956 is space debris in HEO originally from a launch on Fri, 23 May 1969 UTC launched from the Air Force Eastern Test Range (AFETR). Debris objects in space refer to the collection of defunct objects orbiting the Earth. Examples of debris include non-operational satellites, rocket bodies, and fragments generated from explosions, collisions, or faulty payload assembly.

Not visible in the next 10 days
Identifier
3956, 1969-046F
Orbit
HEO
Country
Flag of USUS
Related business
Manufacturer
Martin Marietta
Mission
Spacecraft
Bus & Motor
TRANSTAGE, Unknown motor
Mass
~2,000 kg wet, ~2,000 kg dry
Launch date (UTC)
1969-05-23 (57 years ago)
Launch vehicle
Unknown
Launch site
Air Force Eastern Test Range (AFETR)
Object type
Payload
Rocket body
Debris
Shape & HBR
Unknown
Radar Cross Section
Large (>1 m²)

Expand to show TLE details & history
Last TLE update: 2 days ago

TLE from 2 days ago
0 TITAN 3C TRANSTAGE R/B
1 03956U 69046F   26171.76828560 -.00000837  00000-0  00000-0 0  9996
2 03956  17.4126  36.9143 8024308 270.4887 359.2108  0.46186244 21122
Epoch: 2026-06-20T18:26Z
TLE epoch observation values (Epoch: 2026-06-20T18:26:19.875Z)
Latitude
-17.4655°
Longitude
123.54501°
Altitude
7,500.268 km
Speed
7.198 km/s
True Right ascension
20h 36m 25s
True Declination
-17° 24' 54"
Sunlit
Object was in daylight at epoch
Visualization orbit readout
Latitude
Unknown
Longitude
Unknown
Altitude
Unknown
Speed
Unknown
Apparent Right ascension
Unknown
Apparent Declination
Unknown
Sunlit
N/A
Visualization observer readout
Local Sidereal Time
01:06:06
Azimuth
Unknown
Elevation
Unknown
Doppler factor
Unknown
Orbital elements
Apogee altitude
121,050.743 km
Perigee altitude
7,589.679 km
Semi-major axis
70,698.348 km
Eccentricity
0.80243
Inclination
17.4126°
RAAN
36.9143°
Arg. of periapsis
270.4887°
True anomaly
348.01309°
Mean anomaly
359.2108°
Eccentric anomaly
356.01846°
Mean motion
0.11546 °/min
Orbital period
3,117.98 mins
BSTAR
0
Loading maneuver chart data...
Computing Atmospheric mass density...
Loading historical data...
Loading historical data...
Loading historical data...
Loading historical data...
Loading historical data...
Loading historical data...
Loading historical data...

Documentation

Showing up to 5 results
|